Location: Eurasberg
(48.3353°N, 11.0839°E)
Time: 19:42:58
(UTC+00:00)

Cosmos 1862 Rocket - Pass Details

Date: 18 January 2026
Orbit: 596 x 627 km, 82.5° (Epoch: 13 February)

Event Time Altitude Azimuth Distance (km) Brightness Sun altitude
Exits shadow 05:59:52 - 340° (NNW) 2,749 6.5 -9.8°
Reaches altitude 10° 06:01:59 10° 330° (NNW) 1,963 5.7 -9.5°
Maximum altitude 06:05:43 29° 271° (W) 1,112 4.4 -8.9°
Drops below altitude 10° 06:09:25 10° 211° (SSW) 1,936 6.0 -8.3°
Sets 06:11:49 0° 200° (SSW) 2,830 7.0 -8.0°
